Schaffen, Belgium

6:05 AM CEST on August 21, 2017 (GMT +0200)
Schaffen

Weather History for EBDT - November, 2012

Change the Weather History Date:

Wednesday, November 14, 2012

  Actual Average Record
Temperature  
Mean Temperature 44 °F -  
Max Temperature 52 °F 43 °F 57 °F (2010)
Min Temperature 37 °F 38 °F 30 °F (2011)
Degree Days  
Heating Degree Days 20    
Moisture  
Dew Point 41 °F    
Average Humidity 88    
Maximum Humidity 100    
Minimum Humidity 53    
Precipitation  
Precipitation 0.00 in - - ()
Sea Level Pressure  
Sea Level Pressure 30.37 in    
Wind  
Wind Speed 2 mph ()    
Max Wind Speed 7 mph    
Max Gust Speed -    
Visibility 3.9 miles    
Events Fog    
Averages and records for this station are not official NWS values.
T = Trace of Precipitation, MM = Missing Value Source: Averaged Metar Reports

Daily Weather History Graph

Daily Weather History Graph

Search for Another Location

Airport or City:

Trip Planner

Search our weather history database for the weather conditions in past years. The results will help you decide how hot, cold, wet, or windy it might be!

Date:

Astronomy

Nov. 14, 2012 Rise Set
Actual Time 7:54 AM CET 4:53 PM CET
Civil Twilight 7:18 AM CET 5:29 PM CET
Nautical Twilight 6:38 AM CET 6:09 PM CET
Astronomical Twilight 5:59 AM CET 6:48 PM CET
Moon 8:31 AM CET (11/14) 5:19 PM CET (11/14)
Length of Visible Light 10h 11m
Length of Day
8h 58m
New Moon, 0% of the Moon is Illuminated
Nov 14
New Moon
Nov 20
First Quarter
Nov 28
Full
Dec 6
Last Quarter
Dec 13
New

Hourly Weather History & Observations

Time (CET) Temp. Windchill Dew Point Humidity Pressure Visibility Wind Dir Wind Speed Gust Speed Precip Events Conditions
12:08 AM 46.4 °F - 44.6 °F 93% 30.42 in - Variable 1.2 mph - N/A   Overcast
12:19 AM 46.4 °F - 44.6 °F 93% 30.42 in 3.1 mi Variable 2.3 mph - N/A   Overcast
12:25 AM 46.4 °F - 44.6 °F 93% 30.42 in 3.1 mi Variable 1.2 mph - N/A   Overcast
12:31 AM 46.4 °F - 44.6 °F 93% 30.42 in - Calm Calm - N/A   Overcast
12:43 AM 46.4 °F - 44.6 °F 93% 30.42 in 3.1 mi Calm Calm - N/A   Overcast
1:00 AM 46 °F - 45 °F 95% 30.45 in 4 mi Calm Calm - -   Overcast
1:12 AM 46.4 °F - 44.6 °F 93% 30.42 in - Variable 1.2 mph - N/A   Overcast
1:18 AM 46.4 °F - 44.6 °F 93% 30.42 in 3.1 mi Calm Calm - N/A   Overcast
1:25 AM 46.4 °F - 44.6 °F 93% 30.42 in 3.1 mi Calm Calm - N/A   Overcast
1:34 AM 46.4 °F - 44.6 °F 93% 30.42 in - Variable 2.3 mph - N/A   Overcast
1:52 AM 46.4 °F - 44.6 °F 93% 30.42 in - Variable 2.3 mph - N/A   Overcast
1:58 AM 46.4 °F - 44.6 °F 93% 30.42 in - Variable 2.3 mph - N/A   Overcast
2:04 AM 46.4 °F 45.2 °F 44.6 °F 93% 30.42 in 3.1 mi Variable 3.5 mph - N/A   Overcast
2:22 AM 46.4 °F - 44.6 °F 93% 30.42 in - Variable 1.2 mph - N/A   Overcast
2:25 AM 46.4 °F - 44.6 °F 93% 30.42 in - Variable 1.2 mph - N/A   Overcast
2:34 AM 46.4 °F - 44.6 °F 93% 30.42 in 3.1 mi Variable 2.3 mph - N/A   Overcast
2:40 AM 46.4 °F - 44.6 °F 93% 30.42 in - Variable 1.2 mph - N/A   Overcast
2:53 AM 46.4 °F - 44.6 °F 93% 30.42 in - Variable 1.2 mph - N/A   Overcast
3:09 AM 46.4 °F - 44.6 °F 93% 30.42 in - Variable 1.2 mph - N/A   Overcast
3:15 AM 46.4 °F - 44.6 °F 93% 30.42 in 3.1 mi Variable 1.2 mph - N/A   Overcast
3:25 AM 46.4 °F - 44.6 °F 93% 30.42 in 3.1 mi Calm Calm - N/A   Overcast
3:42 AM 46.4 °F - 44.6 °F 93% 30.39 in - Variable 2.3 mph - N/A   Mostly Cloudy
3:48 AM 44.6 °F - 44.6 °F 100% 30.39 in 1.7 mi Variable 2.3 mph - N/A   Mostly Cloudy
3:56 AM 44.6 °F 43.1 °F 44.6 °F 100% 30.39 in 0.9 mi Variable 3.5 mph - N/A   Mostly Cloudy
4:00 AM 45 °F - 44 °F 96% 30.42 in 1 mi 2.2 mph - -   Mist
4:02 AM 44.6 °F 43.1 °F 44.6 °F 100% 30.39 in 0.2 mi Variable 3.5 mph - N/A Fog Fog
4:25 AM 44.6 °F 43.1 °F 42.8 °F 93% 30.39 in 0.4 mi Variable 3.5 mph - N/A Fog Fog
4:28 AM 44.6 °F 43.1 °F 42.8 °F 93% 30.39 in 0.5 mi Variable 3.5 mph - N/A Fog Fog
4:35 AM 44.6 °F - 42.8 °F 93% 30.39 in 1.0 mi Variable 2.3 mph - N/A   Clear
4:46 AM 44.6 °F - 42.8 °F 93% 30.39 in - Variable 2.3 mph - N/A   Clear
4:57 AM 44.6 °F 43.1 °F 42.8 °F 93% 30.39 in 2.2 mi Variable 3.5 mph - N/A   Clear
5:10 AM 44.6 °F 42.2 °F 42.8 °F 93% 30.39 in 3.7 mi ENE 4.6 mph - N/A   Partly Cloudy
5:25 AM 44.6 °F 42.2 °F 42.8 °F 93% 30.39 in 3.7 mi ENE 4.6 mph - N/A   Partly Cloudy
6:25 AM 42.8 °F 41.1 °F 41.0 °F 93% 30.39 in 3.7 mi Variable 3.5 mph - N/A   Partly Cloudy
6:43 AM 41.0 °F 38.0 °F 41.0 °F 100% 30.39 in 2.8 mi ENE 4.6 mph - N/A   Partly Cloudy
7:00 AM 41 °F - 40 °F 97% 30.40 in 3 mi 2.2 mph - -   Mist
7:20 AM 39.2 °F 35.9 °F 39.2 °F 100% 30.36 in 2.2 mi NNE 4.6 mph - N/A   Partly Cloudy
7:25 AM 39.2 °F 35.9 °F 39.2 °F 100% 30.36 in 0.9 mi NNE 4.6 mph - N/A   Partly Cloudy
7:31 AM 39.2 °F 35.9 °F 39.2 °F 100% 30.39 in 0.4 mi NE 4.6 mph - N/A Fog Fog
7:47 AM 39.2 °F 35.9 °F 37.4 °F 93% 30.39 in 0.6 mi ENE 4.6 mph - N/A   Partly Cloudy
8:01 AM 39.2 °F 37.0 °F 37.4 °F 93% 30.36 in 1.2 mi Variable 3.5 mph - N/A   Partly Cloudy
8:04 AM 39.2 °F 37.0 °F 37.4 °F 93% 30.36 in 2.8 mi Variable 3.5 mph - N/A   Partly Cloudy
8:20 AM 39.2 °F - 37.4 °F 93% 30.39 in 3.1 mi Variable 2.3 mph - N/A   Partly Cloudy
8:25 AM 39.2 °F - 37.4 °F 93% 30.39 in 3.1 mi Variable 2.3 mph - N/A   Partly Cloudy
9:25 AM 41.0 °F 39.0 °F 37.4 °F 87% 30.39 in 4.3 mi Variable 3.5 mph - N/A   Scattered Clouds
10:00 AM 42 °F - 38 °F 82% 30.40 in 4 mi ESE 4.5 mph - -   Clear
10:17 AM 42.8 °F 39.3 °F 37.4 °F 81% 30.39 in 5.0 mi East 5.8 mph - N/A   Scattered Clouds
10:25 AM 42.8 °F 40.1 °F 37.4 °F 81% 30.39 in 5.0 mi ESE 4.6 mph - N/A   Scattered Clouds
11:25 AM 44.6 °F 43.1 °F 39.2 °F 81% 30.36 in 6.2 mi Variable 3.5 mph - N/A   Partly Cloudy
12:25 PM 48.2 °F - 37.4 °F 66% 30.33 in 6.2 mi East 4.6 mph - N/A   Partly Cloudy
1:00 PM 50 °F - 38 °F 53% 30.35 in 11 mi 4.5 mph - -   Partly Cloudy
1:25 PM 51.8 °F - 37.4 °F 58% 30.33 in 6.2 mi Variable 3.5 mph - N/A   Partly Cloudy
2:25 PM 51.8 °F - 39.2 °F 62% 30.30 in 6.2 mi NE 4.6 mph - N/A   Partly Cloudy
3:25 PM 51.8 °F - 39.2 °F 62% 30.30 in 6.2 mi ENE 4.6 mph - N/A   Partly Cloudy
4:00 PM 51 °F - 39 °F 54% 30.30 in 7 mi ENE 6.7 mph - -   Clear
4:25 PM 50.0 °F - 39.2 °F 66% 30.27 in 6.2 mi NE 6.9 mph - N/A   Partly Cloudy
4:37 PM 50.0 °F - 39.2 °F 66% 30.27 in 6.2 mi NE 5.8 mph - N/A   Partly Cloudy
5:25 PM 46.4 °F 45.2 °F 39.2 °F 76% 30.27 in 6.2 mi Variable 3.5 mph - N/A   Clear
6:25 PM 44.6 °F 43.1 °F 37.4 °F 76% 30.27 in 6.2 mi Variable 3.5 mph - N/A   Clear
7:00 PM 44 °F - 37 °F 69% 30.30 in 8 mi 2.2 mph - -   Clear
7:25 PM 44.6 °F 43.1 °F 37.4 °F 76% 30.27 in 6.2 mi Variable 3.5 mph - N/A   Clear
8:25 PM 41.0 °F - 37.4 °F 87% 30.27 in 6.2 mi Variable 2.3 mph - N/A   Clear
9:25 PM 41.0 °F 38.0 °F 35.6 °F 81% 30.27 in 6.2 mi East 4.6 mph - N/A   Clear
10:00 PM 39 °F - 36 °F 83% 30.30 in 6 mi ESE 4.5 mph - -  
10:25 PM 39.2 °F 35.9 °F 35.6 °F 87% 30.27 in 5.0 mi SE 4.6 mph - N/A   Clear
10:33 PM 37.4 °F 32.8 °F 35.6 °F 93% 30.27 in 4.3 mi SSE 5.8 mph - N/A   Clear
11:25 PM 37.4 °F 32.8 °F 35.6 °F 93% 30.27 in 3.1 mi South 5.8 mph - N/A   Clear
11:28 PM 37.4 °F 32.8 °F 35.6 °F 93% 30.27 in - South 5.8 mph - N/A   Partly Cloudy